Change the Weather History Date:

Sunday, April 24, 2011

  Actual Average Record
Temperature  
Mean Temperature 48 °F 48 °F  
Max Temperature 52 °F 56 °F 72 °F (1989)
Min Temperature 44 °F 39 °F 30 °F (2009)
Degree Days  
Heating Degree Days 17 17  
Month to date heating degree days 448  
Since 1 July heating degree days 4941  
Cooling Degree Days 0 0  
Month to date cooling degree days 0  
Year to date cooling degree days 0  
Moisture  
Dew Point 45 °F    
Average Humidity 92    
Maximum Humidity 100    
Minimum Humidity 74    
Precipitation  
Precipitation 0.20 in 0.23 in 0.96 in (2012)
Month to date precipitation 6.55  
Year to date precipitation 42.34  
Sea Level Pressure  
Sea Level Pressure 29.82 in    
Wind  
Wind Speed 4 mph (South)    
Max Wind Speed 16 mph    
Max Gust Speed 25 mph    
Visibility 7 miles    
Events Rain    
T = Trace of Precipitation, MM = Missing Value Source: NWS Daily Summary

Daily Weather History Graph

Daily Weather History Graph

Search for Another Location

Airport or City:

Trip Planner

Search our weather history database for the weather conditions in past years. The results will help you decide how hot, cold, wet, or windy it might be!

Date:

Astronomy

Apr. 24, 2011 Rise Set
Actual Time 6:12 AM PDT 8:21 PM PDT
Civil Twilight 5:38 AM PDT 8:54 PM PDT
Nautical Twilight 4:57 AM PDT 9:36 PM PDT
Astronomical Twilight 4:10 AM PDT 10:24 PM PDT
Moon 2:25 AM PDT (4/24) 11:55 AM PDT (4/24)
Length of Visible Light 15h 16m
Length of Day
14h 08m
Waning Gibbous, 53% of the Moon is Illuminated
Apr 24
Waning Gibbous
Apr 24
Last Quarter
May 2
New
May 10
First Quarter
May 17
Full

Hourly Weather History & Observations

Time (PDT) Temp. Windchill Dew Point Humidity Pressure Visibility Wind Dir Wind Speed Gust Speed Precip Events Conditions
12:53 AM 46.0 °F 44.8 °F 41.0 °F 83% 29.84 in 10.0 mi East 3.5 mph - N/A   Overcast
1:53 AM 45.0 °F - 41.0 °F 86% 29.83 in 10.0 mi Calm Calm - N/A   Overcast
2:53 AM 46.0 °F - 41.0 °F 83% 29.83 in 10.0 mi Calm Calm - N/A   Overcast
3:53 AM 46.0 °F - 42.1 °F 86% 29.82 in 10.0 mi Calm Calm - N/A   Overcast
4:53 AM 46.0 °F - 41.0 °F 83% 29.81 in 10.0 mi Calm Calm - N/A   Overcast
5:53 AM 45.0 °F - 42.1 °F 90% 29.80 in 7.0 mi Calm Calm - 0.01 in Rain Light Rain
6:26 AM 44.6 °F - 42.8 °F 93% 29.80 in 5.0 mi Calm Calm - 0.00 in Rain Light Rain
6:53 AM 45.0 °F - 44.1 °F 97% 29.81 in 5.0 mi Calm Calm - 0.01 in Rain Light Rain
6:59 AM 44.6 °F - 44.6 °F 100% 29.80 in 4.0 mi Calm Calm - 0.00 in Rain Light Rain
7:07 AM 44.6 °F - 44.6 °F 100% 29.80 in 2.5 mi Calm Calm - 0.00 in Rain Light Rain
7:15 AM 44.6 °F - 44.6 °F 100% 29.80 in 1.5 mi Calm Calm - 0.03 in Rain Rain
7:19 AM 44.6 °F - 44.6 °F 100% 29.80 in 2.0 mi Calm Calm - 0.04 in Rain Light Rain
7:30 AM 44.6 °F - 44.6 °F 100% 29.81 in 1.8 mi Calm Calm - 0.07 in Rain Rain
7:35 AM 44.6 °F - 44.6 °F 100% 29.81 in 2.0 mi Calm Calm - 0.08 in Rain Light Rain
7:53 AM 45.0 °F 43.5 °F 44.1 °F 97% 29.81 in 1.8 mi SSW 3.5 mph - 0.09 in Rain Light Rain
8:03 AM 44.6 °F 42.2 °F 44.6 °F 100% 29.81 in 3.0 mi SSW 4.6 mph - 0.00 in Rain Light Rain
8:09 AM 44.6 °F 43.1 °F 44.6 °F 100% 29.81 in 4.0 mi SE 3.5 mph - 0.01 in Rain Light Rain
8:30 AM 46.4 °F 44.3 °F 44.6 °F 93% 29.81 in 6.0 mi SE 4.6 mph - 0.01 in Rain Light Rain
8:53 AM 46.0 °F 43.1 °F 45.0 °F 96% 29.82 in 7.0 mi SSE 5.8 mph - 0.02 in Rain Light Rain
9:00 AM 46.4 °F 44.3 °F 44.6 °F 93% 29.81 in 6.0 mi SSE 4.6 mph - 0.00 in Rain Light Rain
9:53 AM 46.0 °F - 45.0 °F 96% 29.83 in 7.0 mi Calm Calm - 0.01 in Rain Light Rain
10:13 AM 46.4 °F 45.2 °F 44.6 °F 93% 29.82 in 6.0 mi SSE 3.5 mph - 0.00 in Rain Light Rain
10:53 AM 46.9 °F - 45.0 °F 93% 29.83 in 10.0 mi South 6.9 mph - 0.00 in   Overcast
11:53 AM 48.0 °F - 46.0 °F 93% 29.84 in 5.0 mi Variable 3.5 mph - 0.00 in Rain Light Rain
12:08 PM 48.2 °F - 46.4 °F 93% 29.83 in 2.5 mi South 4.6 mph - 0.00 in Rain Light Rain
12:15 PM 48.2 °F - 46.4 °F 93% 29.83 in 3.0 mi South 6.9 mph - 0.01 in Rain Light Rain
12:33 PM 48.2 °F - 46.4 °F 93% 29.83 in 7.0 mi Variable 5.8 mph 18.4 mph 0.01 in   Overcast
12:53 PM 48.9 °F - 46.0 °F 90% 29.83 in 10.0 mi SSE 8.1 mph 20.7 mph 0.01 in   Overcast
1:14 PM 51.8 °F - 46.4 °F 82% 29.83 in 10.0 mi South 12.7 mph 17.3 mph N/A   Overcast
1:53 PM 51.1 °F - 43.0 °F 74% 29.83 in 10.0 mi South 12.7 mph 25.3 mph N/A   Mostly Cloudy
2:18 PM 51.8 °F - 44.6 °F 76% 29.83 in 10.0 mi South 5.8 mph - N/A   Overcast
2:27 PM 50.0 °F - 42.8 °F 76% 29.84 in 10.0 mi South 11.5 mph 21.9 mph N/A   Overcast
2:53 PM 48.9 °F - 44.1 °F 83% 29.84 in 7.0 mi South 9.2 mph 19.6 mph 0.00 in Rain Light Rain
3:53 PM 48.9 °F - 44.1 °F 83% 29.84 in 10.0 mi Variable 5.8 mph 18.4 mph 0.00 in Rain Light Rain
4:43 PM 48.2 °F - 46.4 °F 93% 29.82 in 4.0 mi Variable 4.6 mph - 0.01 in Rain Light Rain
4:53 PM 46.9 °F - 46.0 °F 97% 29.83 in 3.0 mi SSE 4.6 mph - 0.02 in Rain Light Rain
4:56 PM 46.4 °F 43.5 °F 46.4 °F 100% 29.82 in 2.5 mi Variable 5.8 mph - 0.01 in Rain Rain
5:01 PM 48.2 °F - 46.4 °F 93% 29.82 in 3.0 mi SE 6.9 mph - 0.01 in Rain Light Rain
5:06 PM 48.2 °F - 46.4 °F 93% 29.82 in 5.0 mi SSE 6.9 mph - 0.02 in Rain Light Rain
5:13 PM 48.2 °F - 46.4 °F 93% 29.82 in 10.0 mi SSE 5.8 mph - 0.02 in Rain Light Rain
5:20 PM 48.2 °F - 46.4 °F 93% 29.82 in 10.0 mi SSE 5.8 mph 16.1 mph 0.02 in   Overcast
5:53 PM 48.9 °F - 46.9 °F 93% 29.83 in 10.0 mi SSW 10.4 mph 17.3 mph 0.02 in   Overcast
6:40 PM 48.2 °F - 46.4 °F 93% 29.83 in 10.0 mi SSW 10.4 mph 17.3 mph N/A   Overcast
6:53 PM 48.9 °F - 46.0 °F 90% 29.83 in 10.0 mi SSW 8.1 mph 16.1 mph N/A   Overcast
7:15 PM 48.2 °F - 46.4 °F 93% 29.82 in 10.0 mi South 8.1 mph - N/A   Overcast
7:22 PM 48.2 °F - 46.4 °F 93% 29.82 in 10.0 mi South 8.1 mph - N/A   Overcast
7:46 PM 48.2 °F - 46.4 °F 93% 29.81 in 9.0 mi South 4.6 mph - N/A   Overcast
7:53 PM 48.0 °F - 46.0 °F 93% 29.82 in 9.0 mi South 4.6 mph - N/A   Overcast
8:09 PM 48.2 °F - 44.6 °F 87% 29.81 in 9.0 mi South 4.6 mph - N/A   Overcast
8:53 PM 46.9 °F - 46.0 °F 97% 29.82 in 8.0 mi SSW 3.5 mph - 0.01 in Rain Light Rain
8:59 PM 46.4 °F 44.3 °F 46.4 °F 100% 29.82 in 9.0 mi South 4.6 mph - 0.00 in   Overcast
9:53 PM 46.0 °F - 45.0 °F 96% 29.82 in 9.0 mi Calm Calm - 0.00 in   Overcast
10:42 PM 46.4 °F 45.2 °F 44.6 °F 93% 29.80 in 8.0 mi Variable 3.5 mph - N/A   Scattered Clouds
10:53 PM 46.0 °F - 45.0 °F 96% 29.80 in 8.0 mi Calm Calm - N/A   Mostly Cloudy
11:02 PM 46.4 °F 45.2 °F 44.6 °F 93% 29.79 in 8.0 mi ESE 3.5 mph - N/A   Mostly Cloudy
11:46 PM 46.4 °F 45.2 °F 44.6 °F 93% 29.77 in 9.0 mi East 3.5 mph - 0.00 in   Overcast
11:53 PM 46.0 °F - 45.0 °F 96% 29.77 in 7.0 mi Calm Calm - 0.00 in Rain Light Rain